Private Wetterstation Sandau
Wetterdaten: Mittwoch, 04.01.2012
Datum Zeit Temp. A. Feuchte A. Luftdruck Regen Wind Richtung Richtung Taupunkt Windchill
04.01.2012 00:02 7,9 C 76 % 1002,0 hPa 0,5 l/m 32,4 km/h (5 Bft) W-NW 292 3,9 C 3,7 C
04.01.2012 00:07 7,2 C 77 % 1002,3 hPa 0,0 l/m 24,8 km/h (4 Bft) NW 315 3,4 C 3,4 C
04.01.2012 00:12 6,7 C 78 % 1002,1 hPa 0,0 l/m 19,1 km/h (3 Bft) W-NW 292 3,1 C 3,3 C
04.01.2012 00:17 6,4 C 79 % 1001,9 hPa 0,0 l/m 37,4 km/h (5 Bft) W-NW 292 3,0 C 1,3 C
04.01.2012 00:22 6,2 C 79 % 1001,6 hPa 0,0 l/m 19,1 km/h (3 Bft) NW 315 2,8 C 2,7 C
04.01.2012 00:27 6,1 C 79 % 1001,6 hPa 0,0 l/m 32,4 km/h (5 Bft) W-SW 247 2,7 C 1,3 C
04.01.2012 00:32 6,1 C 80 % 1001,7 hPa 0,0 l/m 19,1 km/h (3 Bft) SW 225 2,9 C 2,6 C
04.01.2012 00:37 5,9 C 80 % 1001,8 hPa 0,0 l/m 10,8 km/h (2 Bft) W-NW 292 2,7 C 3,6 C
04.01.2012 00:42 5,9 C 80 % 1002,0 hPa 0,0 l/m 19,1 km/h (3 Bft) NW 315 2,7 C 2,3 C
04.01.2012 00:47 5,8 C 80 % 1001,9 hPa 0,0 l/m 14,8 km/h (3 Bft) W-SW 247 2,6 C 2,8 C
04.01.2012 00:52 5,8 C 80 % 1002,0 hPa 0,0 l/m 23,0 km/h (4 Bft) W-NW 292 2,6 C 1,7 C
04.01.2012 00:57 5,8 C 80 % 1002,1 hPa 0,0 l/m 26,6 km/h (4 Bft) SW 225 2,6 C 1,4 C
04.01.2012 01:02 5,8 C 79 % 1002,2 hPa 0,0 l/m 16,9 km/h (3 Bft) S-SW 202 2,4 C 2,5 C
04.01.2012 01:07 5,8 C 79 % 1002,0 hPa 0,0 l/m 24,5 km/h (4 Bft) W-SW 247 2,4 C 1,6 C
04.01.2012 01:12 5,8 C 78 % 1002,2 hPa 0,0 l/m 29,9 km/h (5 Bft) W-SW 247 2,3 C 1,1 C
04.01.2012 01:17 5,8 C 78 % 1002,2 hPa 0,0 l/m 19,8 km/h (3 Bft) W-SW 247 2,3 C 2,1 C
04.01.2012 01:22 5,8 C 78 % 1002,4 hPa 0,0 l/m 15,1 km/h (3 Bft) W-NW 292 2,3 C 2,7 C
04.01.2012 01:27 5,8 C 77 % 1002,6 hPa 0,0 l/m 25,9 km/h (4 Bft) W-SW 247 2,1 C 1,5 C
04.01.2012 01:32 5,8 C 77 % 1002,3 hPa 0,0 l/m 19,1 km/h (3 Bft) SW 225 2,1 C 2,2 C
04.01.2012 01:37 5,8 C 76 % 1002,5 hPa 0,0 l/m 24,5 km/h (4 Bft) W 270 1,9 C 1,6 C
04.01.2012 01:42 5,8 C 76 % 1002,3 hPa 0,0 l/m 22,3 km/h (4 Bft) W 270 1,9 C 1,8 C
04.01.2012 01:47 5,8 C 76 % 1002,4 hPa 0,0 l/m 19,1 km/h (3 Bft) W 270 1,9 C 2,2 C
04.01.2012 01:52 5,8 C 75 % 1002,6 hPa 0,0 l/m 24,5 km/h (4 Bft) W-SW 247 1,7 C 1,6 C
04.01.2012 01:57 5,8 C 74 % 1002,4 hPa 0,0 l/m 19,1 km/h (3 Bft) SW 225 1,5 C 2,2 C
04.01.2012 02:02 5,9 C 74 % 1002,5 hPa 0,0 l/m 36,0 km/h (5 Bft) W 270 1,6 C 0,8 C
04.01.2012 02:07 5,9 C 74 % 1002,5 hPa 0,0 l/m 28,8 km/h (4 Bft) W 270 1,6 C 1,3 C
04.01.2012 02:12 5,9 C 73 % 1002,7 hPa 0,0 l/m 28,1 km/h (4 Bft) W 270 1,4 C 1,4 C
04.01.2012 02:17 5,9 C 72 % 1002,8 hPa 0,0 l/m 28,8 km/h (4 Bft) W 270 1,2 C 1,3 C
04.01.2012 02:22 5,9 C 72 % 1002,6 hPa 0,0 l/m 31,7 km/h (5 Bft) W-SW 247 1,2 C 1,1 C
04.01.2012 02:27 5,9 C 72 % 1002,8 hPa 0,0 l/m 33,5 km/h (5 Bft) NW 315 1,2 C 0,9 C
04.01.2012 02:32 6,1 C 71 % 1002,8 hPa 0,0 l/m 30,6 km/h (5 Bft) W 270 1,2 C 1,4 C
04.01.2012 02:37 5,9 C 71 % 1002,7 hPa 0,0 l/m 19,4 km/h (3 Bft) W 270 1,1 C 2,3 C
04.01.2012 02:42 5,9 C 71 % 1002,8 hPa 0,0 l/m 20,5 km/h (4 Bft) W 270 1,1 C 2,1 C
04.01.2012 02:47 6,0 C 70 % 1002,8 hPa 0,0 l/m 16,9 km/h (3 Bft) W 270 1,0 C 2,7 C
04.01.2012 02:52 5,9 C 70 % 1002,8 hPa 0,0 l/m 20,5 km/h (4 Bft) W-SW 247 0,9 C 2,1 C
04.01.2012 02:57 5,9 C 70 % 1002,7 hPa 0,0 l/m 22,7 km/h (4 Bft) S 180 0,9 C 1,9 C
04.01.2012 03:02 6,0 C 70 % 1002,8 hPa 0,0 l/m 31,7 km/h (5 Bft) W-SW 247 1,0 C 1,2 C
04.01.2012 03:07 6,1 C 70 % 1003,1 hPa 0,0 l/m 23,0 km/h (4 Bft) W-SW 247 1,0 C 2,1 C
04.01.2012 03:12 6,1 C 70 % 1002,9 hPa 0,0 l/m 20,9 km/h (4 Bft) SW 225 1,0 C 2,4 C
04.01.2012 03:17 6,1 C 69 % 1003,0 hPa 0,0 l/m 26,3 km/h (4 Bft) W-SW 247 0,8 C 1,8 C
04.01.2012 03:22 6,1 C 69 % 1003,1 hPa 0,0 l/m 25,2 km/h (4 Bft) W-SW 247 0,8 C 1,9 C
04.01.2012 03:27 6,2 C 70 % 1003,0 hPa 0,0 l/m 18,0 km/h (3 Bft) W 270 1,1 C 2,8 C
04.01.2012 03:32 6,2 C 69 % 1003,1 hPa 0,0 l/m 16,2 km/h (3 Bft) W 270 0,9 C 3,1 C
04.01.2012 03:37 6,3 C 69 % 1003,2 hPa 0,0 l/m 33,5 km/h (5 Bft) W-SW 247 1,0 C 1,5 C
04.01.2012 03:42 6,3 C 69 % 1003,2 hPa 0,0 l/m 30,6 km/h (5 Bft) W-SW 247 1,0 C 1,7 C
04.01.2012 03:47 6,4 C 70 % 1003,2 hPa 0,0 l/m 30,6 km/h (5 Bft) W-SW 247 1,3 C 1,8 C
04.01.2012 03:52 6,4 C 69 % 1003,2 hPa 0,0 l/m 19,8 km/h (3 Bft) W-SW 247 1,1 C 2,9 C
04.01.2012 03:57 6,5 C 70 % 1003,3 hPa 0,0 l/m 16,9 km/h (3 Bft) W-NW 292 1,4 C 3,3 C
04.01.2012 04:02 6,5 C 69 % 1003,3 hPa 0,0 l/m 25,2 km/h (4 Bft) W 270 1,2 C 2,4 C
04.01.2012 04:07 6,6 C 70 % 1003,0 hPa 0,0 l/m 18,7 km/h (3 Bft) W-SW 247 1,5 C 3,2 C
04.01.2012 04:12 6,6 C 70 % 1003,1 hPa 0,0 l/m 23,0 km/h (4 Bft) SW 225 1,5 C 2,8 C
04.01.2012 04:17 6,6 C 69 % 1003,0 hPa 0,0 l/m 30,2 km/h (5 Bft) W-SW 247 1,3 C 2,1 C
04.01.2012 04:22 6,6 C 69 % 1003,0 hPa 0,0 l/m 30,6 km/h (5 Bft) SW 225 1,3 C 2,1 C
04.01.2012 04:27 6,6 C 68 % 1003,1 hPa 0,0 l/m 27,0 km/h (4 Bft) W-SW 247 1,1 C 2,4 C
04.01.2012 04:32 6,6 C 68 % 1002,8 hPa 0,0 l/m 14,8 km/h (3 Bft) W-NW 292 1,1 C 3,8 C
04.01.2012 04:37 6,5 C 68 % 1003,0 hPa 0,0 l/m 19,8 km/h (3 Bft) W-SW 247 1,0 C 3,0 C
04.01.2012 04:42 6,4 C 68 % 1002,9 hPa 0,0 l/m 30,6 km/h (5 Bft) W-SW 247 0,9 C 1,8 C
04.01.2012 04:47 6,4 C 68 % 1002,9 hPa 0,0 l/m 21,2 km/h (4 Bft) W 270 0,9 C 2,7 C
04.01.2012 04:52 6,4 C 68 % 1002,8 hPa 0,0 l/m 31,3 km/h (5 Bft) W 270 0,9 C 1,8 C
04.01.2012 04:57 6,3 C 68 % 1002,8 hPa 0,0 l/m 20,2 km/h (4 Bft) W-SW 247 0,8 C 2,7 C
04.01.2012 05:02 6,3 C 69 % 1002,8 hPa 0,0 l/m 20,9 km/h (4 Bft) W-NW 292 1,0 C 2,6 C
04.01.2012 05:07 6,2 C 69 % 1002,7 hPa 0,0 l/m 19,4 km/h (3 Bft) W-SW 247 0,9 C 2,7 C
04.01.2012 05:12 6,1 C 69 % 1002,9 hPa 0,0 l/m 25,6 km/h (4 Bft) W 270 0,8 C 1,9 C
04.01.2012 05:17 6,1 C 69 % 1003,0 hPa 0,0 l/m 27,4 km/h (4 Bft) W-SW 247 0,8 C 1,7 C
04.01.2012 05:22 6,1 C 69 % 1002,9 hPa 0,0 l/m 17,6 km/h (3 Bft) W-SW 247 0,8 C 2,7 C
04.01.2012 05:27 6,0 C 70 % 1002,8 hPa 0,0 l/m 16,6 km/h (3 Bft) SW 225 1,0 C 2,8 C
04.01.2012 05:32 5,9 C 70 % 1002,8 hPa 0,0 l/m 27,7 km/h (4 Bft) W-SW 247 0,9 C 1,4 C
04.01.2012 05:37 5,9 C 70 % 1002,9 hPa 0,0 l/m 24,8 km/h (4 Bft) SW 225 0,9 C 1,7 C
04.01.2012 05:42 5,9 C 70 % 1003,0 hPa 0,0 l/m 27,7 km/h (4 Bft) W 270 0,9 C 1,4 C
04.01.2012 05:47 5,8 C 71 % 1002,9 hPa 0,0 l/m 19,8 km/h (3 Bft) SW 225 1,0 C 2,1 C
04.01.2012 05:52 5,8 C 71 % 1003,1 hPa 0,0 l/m 25,2 km/h (4 Bft) SW 225 1,0 C 1,5 C
04.01.2012 05:57 5,9 C 71 % 1003,0 hPa 0,0 l/m 25,2 km/h (4 Bft) S-SW 202 1,1 C 1,7 C
04.01.2012 06:02 5,9 C 71 % 1003,1 hPa 0,0 l/m 27,0 km/h (4 Bft) W 270 1,1 C 1,5 C
04.01.2012 06:07 6,1 C 71 % 1003,3 hPa 0,0 l/m 24,1 km/h (4 Bft) W 270 1,2 C 2,0 C
04.01.2012 06:12 6,1 C 71 % 1003,3 hPa 0,0 l/m 12,6 km/h (3 Bft) W 270 1,2 C 3,5 C
04.01.2012 06:17 6,1 C 72 % 1003,2 hPa 0,0 l/m 11,5 km/h (2 Bft) W-SW 247 1,4 C 3,7 C
04.01.2012 06:22 6,1 C 71 % 1003,3 hPa 0,0 l/m 18,7 km/h (3 Bft) W-NW 292 1,2 C 2,6 C
04.01.2012 06:27 6,2 C 71 % 1003,3 hPa 0,0 l/m 23,0 km/h (4 Bft) SW 225 1,3 C 2,3 C
04.01.2012 06:32 6,2 C 71 % 1003,3 hPa 0,0 l/m 27,0 km/h (4 Bft) SW 225 1,3 C 1,9 C
04.01.2012 06:37 6,2 C 71 % 1003,3 hPa 0,0 l/m 22,3 km/h (4 Bft) W-SW 247 1,3 C 2,3 C
04.01.2012 06:42 6,3 C 71 % 1003,0 hPa 0,0 l/m 27,4 km/h (4 Bft) W-SW 247 1,4 C 2,0 C
04.01.2012 06:47 6,2 C 71 % 1003,0 hPa 0,0 l/m 21,2 km/h (4 Bft) W-SW 247 1,3 C 2,4 C
04.01.2012 06:52 6,1 C 71 % 1003,2 hPa 0,0 l/m 18,4 km/h (3 Bft) W-SW 247 1,2 C 2,6 C
04.01.2012 06:57 6,0 C 71 % 1003,2 hPa 0,0 l/m 11,9 km/h (2 Bft) SW 225 1,1 C 3,5 C
04.01.2012 07:02 5,9 C 72 % 1003,3 hPa 0,0 l/m 16,2 km/h (3 Bft) W-SW 247 1,2 C 2,7 C
04.01.2012 07:07 5,8 C 71 % 1003,5 hPa 0,0 l/m 19,1 km/h (3 Bft) W-SW 247 1,0 C 2,2 C
04.01.2012 07:12 5,8 C 72 % 1003,7 hPa 0,0 l/m 15,8 km/h (3 Bft) W-SW 247 1,2 C 2,6 C
04.01.2012 07:17 5,6 C 72 % 1003,5 hPa 0,0 l/m 28,8 km/h (4 Bft) S 180 1,0 C 0,9 C
04.01.2012 07:22 5,6 C 72 % 1003,7 hPa 0,0 l/m 26,3 km/h (4 Bft) SW 225 1,0 C 1,2 C
04.01.2012 07:27 5,6 C 73 % 1003,7 hPa 0,0 l/m 18,4 km/h (3 Bft) W-SW 247 1,2 C 2,0 C
04.01.2012 07:32 5,7 C 73 % 1003,9 hPa 0,0 l/m 19,4 km/h (3 Bft) W 270 1,2 C 2,0 C
04.01.2012 07:37 5,8 C 73 % 1003,8 hPa 0,0 l/m 27,7 km/h (4 Bft) SW 225 1,3 C 1,3 C
04.01.2012 07:42 5,8 C 73 % 1003,9 hPa 0,0 l/m 20,5 km/h (4 Bft) W-SW 247 1,3 C 2,0 C
04.01.2012 07:47 5,8 C 73 % 1004,1 hPa 0,0 l/m 27,0 km/h (4 Bft) SW 225 1,3 C 1,4 C
04.01.2012 07:52 5,8 C 73 % 1003,9 hPa 0,0 l/m 23,0 km/h (4 Bft) W 270 1,3 C 1,7 C
04.01.2012 07:57 5,8 C 73 % 1003,9 hPa 0,0 l/m 19,8 km/h (3 Bft) W-SW 247 1,3 C 2,1 C
04.01.2012 08:02 5,9 C 73 % 1004,0 hPa 0,0 l/m 17,6 km/h (3 Bft) W 270 1,4 C 2,5 C
04.01.2012 08:07 5,9 C 73 % 1004,1 hPa 0,0 l/m 16,6 km/h (3 Bft) NW 315 1,4 C 2,6 C
04.01.2012 08:12 5,9 C 73 % 1004,1 hPa 0,0 l/m 21,2 km/h (4 Bft) W 270 1,4 C 2,1 C
04.01.2012 08:17 5,9 C 73 % 1003,8 hPa 0,0 l/m 27,7 km/h (4 Bft) W-SW 247 1,4 C 1,4 C
04.01.2012 08:22 5,9 C 73 % 1003,9 hPa 0,0 l/m 15,8 km/h (3 Bft) W 270 1,4 C 2,7 C
04.01.2012 08:27 5,9 C 72 % 1004,0 hPa 0,0 l/m 32,8 km/h (5 Bft) SW 225 1,2 C 1,0 C
04.01.2012 08:32 5,9 C 73 % 1004,1 hPa 0,0 l/m 20,5 km/h (4 Bft) W 270 1,4 C 2,1 C
04.01.2012 08:37 5,9 C 72 % 1004,2 hPa 0,0 l/m 22,3 km/h (4 Bft) W-SW 247 1,2 C 1,9 C
04.01.2012 08:42 5,9 C 73 % 1004,3 hPa 0,0 l/m 16,9 km/h (3 Bft) W 270 1,4 C 2,6 C
04.01.2012 08:47 5,9 C 73 % 1004,2 hPa 0,0 l/m 22,0 km/h (4 Bft) W-SW 247 1,4 C 2,0 C
04.01.2012 08:52 5,9 C 73 % 1004,3 hPa 0,0 l/m 27,4 km/h (4 Bft) W-SW 247 1,4 C 1,4 C
04.01.2012 08:57 5,9 C 72 % 1004,5 hPa 0,0 l/m 23,4 km/h (4 Bft) W-SW 247 1,2 C 1,8 C
04.01.2012 09:02 5,9 C 72 % 1004,4 hPa 0,0 l/m 13,0 km/h (3 Bft) W 270 1,2 C 3,2 C
04.01.2012 09:07 6,0 C 73 % 1004,5 hPa 0,0 l/m 25,6 km/h (4 Bft) W-SW 247 1,5 C 1,7 C
04.01.2012 09:12 5,9 C 74 % 1004,6 hPa 0,0 l/m 26,3 km/h (4 Bft) W 270 1,6 C 1,5 C
04.01.2012 09:17 5,9 C 75 % 1004,8 hPa 0,0 l/m 19,1 km/h (3 Bft) W-SW 247 1,8 C 2,3 C
04.01.2012 09:22 5,8 C 76 % 1004,8 hPa 0,0 l/m 24,5 km/h (4 Bft) W 270 1,9 C 1,6 C
04.01.2012 09:27 5,6 C 77 % 1005,0 hPa 0,5 l/m 18,7 km/h (3 Bft) W 270 1,9 C 2,0 C
04.01.2012 09:32 5,5 C 78 % 1005,1 hPa 0,0 l/m 25,6 km/h (4 Bft) W-SW 247 2,0 C 1,1 C
04.01.2012 09:37 5,4 C 79 % 1005,2 hPa 0,0 l/m 8,6 km/h (2 Bft) W 270 2,1 C 3,5 C
04.01.2012 09:42 5,3 C 79 % 1005,3 hPa 0,0 l/m 15,8 km/h (3 Bft) W-NW 292 2,0 C 2,0 C
04.01.2012 09:47 5,2 C 80 % 1005,3 hPa 0,0 l/m 9,7 km/h (2 Bft) W-NW 292 2,0 C 3,0 C
04.01.2012 09:52 5,1 C 81 % 1005,4 hPa 0,0 l/m 20,5 km/h (4 Bft) W-SW 247 2,1 C 1,1 C
04.01.2012 09:57 5,1 C 81 % 1005,6 hPa 0,0 l/m 4,3 km/h (1 Bft) W-NW 292 2,1 C 5,1 C
04.01.2012 10:02 5,1 C 81 % 1005,6 hPa 0,0 l/m 23,0 km/h (4 Bft) SW 225 2,1 C 0,9 C
04.01.2012 10:07 5,2 C 82 % 1005,8 hPa 0,0 l/m 26,6 km/h (4 Bft) SW 225 2,4 C 0,6 C
04.01.2012 10:12 5,3 C 82 % 1005,8 hPa 0,0 l/m 14,4 km/h (3 Bft) S-SW 202 2,5 C 2,2 C
04.01.2012 10:17 5,4 C 82 % 1005,8 hPa 0,0 l/m 16,6 km/h (3 Bft) W-NW 292 2,6 C 2,0 C
04.01.2012 10:22 5,4 C 82 % 1005,9 hPa 0,0 l/m 22,0 km/h (4 Bft) W-SW 247 2,6 C 1,3 C
04.01.2012 10:27 5,4 C 82 % 1005,9 hPa 0,0 l/m 16,9 km/h (3 Bft) W-SW 247 2,6 C 2,0 C
04.01.2012 10:32 5,3 C 82 % 1006,1 hPa 0,0 l/m 26,3 km/h (4 Bft) W-NW 292 2,5 C 0,8 C
04.01.2012 10:37 5,4 C 82 % 1006,1 hPa 0,0 l/m 10,1 km/h (2 Bft) W-NW 292 2,6 C 3,1 C
04.01.2012 10:42 5,4 C 82 % 1006,1 hPa 0,0 l/m 13,0 km/h (3 Bft) W 270 2,6 C 2,6 C
04.01.2012 10:47 5,4 C 82 % 1006,2 hPa 0,0 l/m 20,2 km/h (4 Bft) SW 225 2,6 C 1,5 C
04.01.2012 10:52 5,4 C 82 % 1006,2 hPa 0,0 l/m 14,8 km/h (3 Bft) SW 225 2,6 C 2,3 C
04.01.2012 10:57 5,5 C 82 % 1006,3 hPa 0,0 l/m 27,7 km/h (4 Bft) W-SW 247 2,7 C 0,9 C
04.01.2012 11:02 5,6 C 82 % 1006,2 hPa 0,0 l/m 22,0 km/h (4 Bft) W 270 2,8 C 1,6 C
04.01.2012 11:07 5,6 C 81 % 1006,3 hPa 0,0 l/m 14,8 km/h (3 Bft) W-SW 247 2,6 C 2,5 C
04.01.2012 11:12 5,6 C 81 % 1006,4 hPa 0,0 l/m 14,8 km/h (3 Bft) W 270 2,6 C 2,5 C
04.01.2012 11:17 5,6 C 81 % 1006,6 hPa 0,0 l/m 16,6 km/h (3 Bft) W 270 2,6 C 2,3 C
04.01.2012 11:22 5,6 C 81 % 1006,7 hPa 0,0 l/m 24,1 km/h (4 Bft) W 270 2,6 C 1,4 C
04.01.2012 11:27 5,6 C 81 % 1006,7 hPa 0,0 l/m 18,7 km/h (3 Bft) W-SW 247 2,6 C 2,0 C
04.01.2012 11:32 5,8 C 81 % 1006,7 hPa 0,0 l/m 19,8 km/h (3 Bft) W-SW 247 2,8 C 2,1 C
04.01.2012 11:37 5,9 C 81 % 1006,6 hPa 0,0 l/m 15,8 km/h (3 Bft) W-NW 292 2,9 C 2,7 C
04.01.2012 11:42 6,0 C 81 % 1006,9 hPa 0,0 l/m 14,8 km/h (3 Bft) W 270 3,0 C 3,0 C
04.01.2012 11:47 6,1 C 81 % 1006,7 hPa 0,0 l/m 13,0 km/h (3 Bft) W-SW 247 3,1 C 3,4 C
04.01.2012 11:52 6,2 C 81 % 1006,8 hPa 0,0 l/m 23,4 km/h (4 Bft) W-SW 247 3,2 C 2,2 C
04.01.2012 11:57 6,1 C 81 % 1007,0 hPa 0,0 l/m 20,9 km/h (4 Bft) S-SW 202 3,1 C 2,4 C
04.01.2012 12:02 6,2 C 81 % 1007,1 hPa 0,0 l/m 14,8 km/h (3 Bft) W-SW 247 3,2 C 3,3 C
04.01.2012 12:07 6,1 C 81 % 1007,0 hPa 0,0 l/m 11,2 km/h (2 Bft) W-SW 247 3,1 C 3,7 C
04.01.2012 12:12 6,2 C 81 % 1007,0 hPa 0,0 l/m 26,6 km/h (4 Bft) W 270 3,2 C 1,9 C
04.01.2012 12:17 6,1 C 81 % 1007,0 hPa 0,0 l/m 18,4 km/h (3 Bft) NW 315 3,1 C 2,6 C
04.01.2012 12:22 5,9 C 81 % 1007,2 hPa 0,0 l/m 29,2 km/h (5 Bft) W-SW 247 2,9 C 1,3 C
04.01.2012 12:27 5,8 C 81 % 1007,3 hPa 0,0 l/m 19,1 km/h (3 Bft) W-NW 292 2,8 C 2,2 C
04.01.2012 12:32 5,6 C 81 % 1007,2 hPa 0,0 l/m 19,8 km/h (3 Bft) SW 225 2,6 C 1,8 C
04.01.2012 12:37 5,6 C 82 % 1007,2 hPa 0,0 l/m 9,4 km/h (2 Bft) NW 315 2,8 C 3,5 C
04.01.2012 12:42 5,6 C 82 % 1007,3 hPa 0,0 l/m 23,8 km/h (4 Bft) W-SW 247 2,8 C 1,4 C
04.01.2012 12:47 5,8 C 82 % 1007,3 hPa 0,0 l/m 7,6 km/h (2 Bft) SW 225 3,0 C 4,2 C
04.01.2012 12:52 5,8 C 83 % 1007,2 hPa 0,0 l/m 15,5 km/h (3 Bft) W-SW 247 3,1 C 2,7 C
04.01.2012 12:57 6,1 C 83 % 1007,3 hPa 0,0 l/m 16,2 km/h (3 Bft) W 270 3,4 C 2,9 C
04.01.2012 13:02 6,3 C 82 % 1007,1 hPa 0,0 l/m 9,7 km/h (2 Bft) SW 225 3,5 C 4,3 C
04.01.2012 13:07 6,5 C 80 % 1007,1 hPa 0,0 l/m 10,1 km/h (2 Bft) W-SW 247 3,3 C 4,4 C
04.01.2012 13:12 6,7 C 80 % 1007,3 hPa 0,0 l/m 15,5 km/h (3 Bft) W 270 3,5 C 3,8 C
04.01.2012 13:17 6,8 C 79 % 1007,1 hPa 0,0 l/m 20,5 km/h (4 Bft) W 270 3,4 C 3,3 C
04.01.2012 13:22 6,8 C 78 % 1007,3 hPa 0,0 l/m 23,4 km/h (4 Bft) SW 225 3,2 C 3,0 C
04.01.2012 13:27 6,8 C 78 % 1007,5 hPa 0,0 l/m 8,3 km/h (2 Bft) W-SW 247 3,2 C 5,2 C
04.01.2012 13:32 6,7 C 78 % 1007,5 hPa 0,0 l/m 18,4 km/h (3 Bft) W 270 3,1 C 3,4 C
04.01.2012 13:37 6,7 C 78 % 1007,7 hPa 0,0 l/m 12,2 km/h (2 Bft) W-NW 292 3,1 C 4,3 C
04.01.2012 13:42 6,7 C 77 % 1007,6 hPa 0,0 l/m 7,6 km/h (2 Bft) W 270 3,0 C 5,2 C
04.01.2012 13:47 6,7 C 77 % 1008,0 hPa 0,0 l/m 23,4 km/h (4 Bft) W-SW 247 3,0 C 2,9 C
04.01.2012 13:52 6,6 C 78 % 1007,8 hPa 0,0 l/m 7,9 km/h (2 Bft) W-NW 292 3,0 C 5,0 C
04.01.2012 13:57 6,5 C 78 % 1007,9 hPa 0,0 l/m 22,7 km/h (4 Bft) W 270 2,9 C 2,7 C
04.01.2012 14:02 6,4 C 78 % 1007,9 hPa 0,0 l/m 20,5 km/h (4 Bft) W 270 2,8 C 2,8 C
04.01.2012 14:07 6,4 C 79 % 1007,7 hPa 0,5 l/m 16,2 km/h (3 Bft) W-NW 292 3,0 C 3,3 C
04.01.2012 14:12 6,4 C 78 % 1008,1 hPa 0,0 l/m 9,0 km/h (2 Bft) W 270 2,8 C 4,5 C
04.01.2012 14:17 6,3 C 79 % 1008,2 hPa 0,0 l/m 15,8 km/h (3 Bft) W 270 2,9 C 3,2 C
04.01.2012 14:22 6,1 C 80 % 1008,2 hPa 0,5 l/m 29,5 km/h (5 Bft) W 270 2,9 C 1,5 C
04.01.2012 14:27 5,9 C 81 % 1008,1 hPa 0,0 l/m 15,5 km/h (3 Bft) NW 315 2,9 C 2,8 C
04.01.2012 14:32 5,6 C 81 % 1008,0 hPa 0,0 l/m 13,0 km/h (3 Bft) W-SW 247 2,6 C 2,8 C
04.01.2012 14:37 5,6 C 82 % 1008,1 hPa 0,0 l/m 13,7 km/h (3 Bft) W-NW 292 2,8 C 2,7 C
04.01.2012 14:42 5,6 C 82 % 1008,1 hPa 0,0 l/m 9,7 km/h (2 Bft) W 270 2,8 C 3,4 C
04.01.2012 14:47 5,8 C 82 % 1008,1 hPa 0,0 l/m 11,9 km/h (2 Bft) W 270 3,0 C 3,2 C
04.01.2012 14:52 5,9 C 82 % 1008,1 hPa 0,0 l/m 13,7 km/h (3 Bft) W-NW 292 3,1 C 3,1 C
04.01.2012 14:57 5,9 C 81 % 1008,1 hPa 0,0 l/m 33,8 km/h (5 Bft) S-SW 202 2,9 C 0,9 C
04.01.2012 15:02 6,1 C 81 % 1008,1 hPa 0,0 l/m 15,1 km/h (3 Bft) W-SW 247 3,1 C 3,1 C
04.01.2012 15:07 6,1 C 80 % 1008,3 hPa 0,0 l/m 10,8 km/h (2 Bft) W-NW 292 2,9 C 3,8 C
04.01.2012 15:12 6,2 C 80 % 1008,2 hPa 0,0 l/m 20,5 km/h (4 Bft) W-SW 247 3,0 C 2,5 C
04.01.2012 15:17 6,1 C 80 % 1008,3 hPa 0,0 l/m 13,0 km/h (3 Bft) W 270 2,9 C 3,4 C
04.01.2012 15:22 6,1 C 80 % 1008,3 hPa 0,0 l/m 12,2 km/h (2 Bft) W-NW 292 2,9 C 3,6 C
04.01.2012 15:27 5,9 C 80 % 1008,4 hPa 0,0 l/m 11,9 km/h (2 Bft) W-NW 292 2,7 C 3,4 C
04.01.2012 15:32 6,0 C 81 % 1008,4 hPa 0,0 l/m 10,8 km/h (2 Bft) W-SW 247 3,0 C 3,7 C
04.01.2012 15:37 6,0 C 80 % 1008,4 hPa 0,0 l/m 5,8 km/h (2 Bft) W-SW 247 2,8 C 4,9 C
04.01.2012 15:42 6,1 C 80 % 1008,6 hPa 0,0 l/m 20,9 km/h (4 Bft) W-NW 292 2,9 C 2,4 C
04.01.2012 15:47 6,2 C 79 % 1008,4 hPa 0,0 l/m 15,5 km/h (3 Bft) S-SW 202 2,8 C 3,2 C
04.01.2012 15:52 6,3 C 78 % 1008,4 hPa 0,0 l/m 29,2 km/h (5 Bft) SW 225 2,8 C 1,8 C
04.01.2012 15:57 6,3 C 78 % 1008,9 hPa 0,0 l/m 15,8 km/h (3 Bft) W-NW 292 2,8 C 3,2 C
04.01.2012 16:02 5,9 C 78 % 1008,8 hPa 0,0 l/m 15,8 km/h (3 Bft) W 270 2,4 C 2,7 C
04.01.2012 16:07 5,6 C 79 % 1008,7 hPa 0,5 l/m 15,8 km/h (3 Bft) W-SW 247 2,3 C 2,4 C
04.01.2012 16:12 5,4 C 80 % 1008,6 hPa 0,0 l/m 9,4 km/h (2 Bft) W-NW 292 2,2 C 3,3 C
04.01.2012 16:17 5,3 C 80 % 1008,6 hPa 0,0 l/m 7,9 km/h (2 Bft) W 270 2,1 C 3,5 C
04.01.2012 16:22 5,3 C 80 % 1008,7 hPa 0,0 l/m 8,3 km/h (2 Bft) W 270 2,1 C 3,4 C
04.01.2012 16:27 5,4 C 80 % 1008,8 hPa 0,0 l/m 9,4 km/h (2 Bft) W-SW 247 2,2 C 3,3 C
04.01.2012 16:32 5,3 C 80 % 1008,8 hPa 0,0 l/m 31,7 km/h (5 Bft) SW 225 2,1 C 0,3 C
04.01.2012 16:37 5,4 C 80 % 1009,1 hPa 0,0 l/m 30,2 km/h (5 Bft) W-SW 247 2,2 C 0,6 C
04.01.2012 16:42 5,4 C 80 % 1009,2 hPa 0,0 l/m 33,8 km/h (5 Bft) W 270 2,2 C 0,3 C
04.01.2012 16:47 5,3 C 81 % 1009,4 hPa 0,0 l/m 32,4 km/h (5 Bft) W 270 2,3 C 0,2 C
04.01.2012 16:52 5,2 C 81 % 1009,2 hPa 0,0 l/m 21,6 km/h (4 Bft) W-SW 247 2,2 C 1,1 C
04.01.2012 16:57 4,9 C 82 % 1009,5 hPa 0,0 l/m 27,7 km/h (4 Bft) W 270 2,1 C 0,1 C
04.01.2012 17:02 4,8 C 83 % 1009,2 hPa 0,5 l/m 14,8 km/h (3 Bft) SW 225 2,2 C 1,5 C
04.01.2012 17:07 4,6 C 83 % 1009,5 hPa 0,0 l/m 19,8 km/h (3 Bft) W-SW 247 2,0 C 0,6 C
04.01.2012 17:12 4,6 C 83 % 1009,4 hPa 0,0 l/m 13,3 km/h (3 Bft) W-NW 292 2,0 C 1,5 C
04.01.2012 17:17 4,6 C 83 % 1009,4 hPa 0,0 l/m 22,3 km/h (4 Bft) W 270 2,0 C 0,3 C
04.01.2012 17:22 4,4 C 83 % 1009,3 hPa 0,0 l/m 15,8 km/h (3 Bft) W 270 1,8 C 0,9 C
04.01.2012 17:27 4,3 C 83 % 1009,2 hPa 0,0 l/m 15,8 km/h (3 Bft) W-SW 247 1,7 C 0,8 C
04.01.2012 17:32 4,2 C 84 % 1009,0 hPa 0,0 l/m 19,8 km/h (3 Bft) W-SW 247 1,7 C 0,1 C
04.01.2012 17:37 4,2 C 84 % 1008,9 hPa 0,0 l/m 21,6 km/h (4 Bft) W-SW 247 1,7 C -0,1 C
04.01.2012 17:42 4,2 C 83 % 1008,8 hPa 0,0 l/m 11,2 km/h (2 Bft) SW 225 1,6 C 1,4 C
04.01.2012 17:47 4,3 C 83 % 1008,9 hPa 0,0 l/m 13,3 km/h (3 Bft) W-SW 247 1,7 C 1,2 C
04.01.2012 17:52 4,3 C 83 % 1008,8 hPa 0,0 l/m 15,1 km/h (3 Bft) W 270 1,7 C 0,9 C
04.01.2012 17:57 4,3 C 84 % 1008,8 hPa 0,0 l/m 15,1 km/h (3 Bft) W 270 1,8 C 0,9 C
04.01.2012 18:02 4,3 C 84 % 1008,5 hPa 0,0 l/m 16,6 km/h (3 Bft) W 270 1,8 C 0,6 C
04.01.2012 18:07 4,4 C 84 % 1008,6 hPa 0,0 l/m 15,1 km/h (3 Bft) W-SW 247 1,9 C 1,0 C
04.01.2012 18:12 4,4 C 84 % 1008,5 hPa 0,0 l/m 14,8 km/h (3 Bft) W-SW 247 1,9 C 1,0 C
04.01.2012 18:17 4,5 C 83 % 1008,3 hPa 0,0 l/m 14,8 km/h (3 Bft) W-SW 247 1,9 C 1,2 C
04.01.2012 18:22 4,6 C 83 % 1008,6 hPa 0,0 l/m 25,6 km/h (4 Bft) W-SW 247 2,0 C -0,1 C
04.01.2012 18:27 4,7 C 83 % 1008,6 hPa 0,0 l/m 12,6 km/h (3 Bft) W-NW 292 2,1 C 1,8 C
04.01.2012 18:32 4,8 C 83 % 1008,4 hPa 0,0 l/m 31,3 km/h (5 Bft) W 270 2,2 C -0,3 C
04.01.2012 18:37 4,9 C 83 % 1008,3 hPa 0,0 l/m 8,3 km/h (2 Bft) SW 225 2,3 C 2,9 C
04.01.2012 18:42 4,9 C 83 % 1008,1 hPa 0,0 l/m 20,9 km/h (4 Bft) W-SW 247 2,3 C 0,8 C
04.01.2012 18:47 5,0 C 83 % 1008,0 hPa 0,0 l/m 21,6 km/h (4 Bft) W-SW 247 2,4 C 0,9 C
04.01.2012 18:52 5,1 C 82 % 1008,2 hPa 0,0 l/m 18,0 km/h (3 Bft) W-SW 247 2,3 C 1,4 C
04.01.2012 18:57 5,1 C 82 % 1008,1 hPa 0,0 l/m 20,5 km/h (4 Bft) W 270 2,3 C 1,1 C
04.01.2012 19:02 5,2 C 81 % 1008,0 hPa 0,0 l/m 29,5 km/h (5 Bft) SW 225 2,2 C 0,4 C
04.01.2012 19:07 5,2 C 81 % 1007,8 hPa 0,0 l/m 13,7 km/h (3 Bft) W-SW 247 2,2 C 2,2 C
04.01.2012 19:12 5,2 C 81 % 1007,7 hPa 0,0 l/m 24,5 km/h (4 Bft) W-SW 247 2,2 C 0,8 C
04.01.2012 19:17 5,3 C 81 % 1008,0 hPa 0,0 l/m 31,0 km/h (5 Bft) SW 225 2,3 C 0,4 C
04.01.2012 19:22 5,3 C 80 % 1007,7 hPa 0,0 l/m 22,7 km/h (4 Bft) W-SW 247 2,1 C 1,1 C
04.01.2012 19:27 5,3 C 81 % 1007,7 hPa 0,0 l/m 12,2 km/h (2 Bft) W 270 2,3 C 2,6 C
04.01.2012 19:32 5,4 C 80 % 1007,5 hPa 0,0 l/m 16,9 km/h (3 Bft) SW 225 2,2 C 2,0 C
04.01.2012 19:37 5,4 C 80 % 1007,4 hPa 0,0 l/m 28,1 km/h (4 Bft) W-SW 247 2,2 C 0,7 C
04.01.2012 19:42 5,4 C 80 % 1007,4 hPa 0,0 l/m 23,8 km/h (4 Bft) W-SW 247 2,2 C 1,2 C
04.01.2012 19:47 5,4 C 80 % 1007,5 hPa 0,0 l/m 25,6 km/h (4 Bft) S-SW 202 2,2 C 1,0 C
04.01.2012 19:52 5,4 C 80 % 1007,3 hPa 0,0 l/m 28,4 km/h (4 Bft) W-SW 247 2,2 C 0,7 C
04.01.2012 19:57 5,5 C 79 % 1007,2 hPa 0,0 l/m 18,4 km/h (3 Bft) SW 225 2,2 C 1,9 C
04.01.2012 20:02 5,6 C 79 % 1007,2 hPa 0,0 l/m 15,5 km/h (3 Bft) W-SW 247 2,3 C 2,4 C
04.01.2012 20:07 5,5 C 79 % 1007,1 hPa 0,0 l/m 29,2 km/h (5 Bft) W-SW 247 2,2 C 0,8 C
04.01.2012 20:12 5,5 C 79 % 1007,0 hPa 0,0 l/m 26,6 km/h (4 Bft) W-SW 247 2,2 C 1,0 C
04.01.2012 20:17 5,6 C 79 % 1006,9 hPa 0,0 l/m 30,2 km/h (5 Bft) W-SW 247 2,3 C 0,8 C
04.01.2012 20:22 5,6 C 78 % 1007,1 hPa 0,0 l/m 26,6 km/h (4 Bft) S-SW 202 2,1 C 1,1 C
04.01.2012 20:27 5,6 C 78 % 1006,9 hPa 0,0 l/m 14,8 km/h (3 Bft) SW 225 2,1 C 2,5 C
04.01.2012 20:32 5,6 C 78 % 1006,6 hPa 0,0 l/m 17,3 km/h (3 Bft) S-SW 202 2,1 C 2,2 C
04.01.2012 20:37 5,6 C 78 % 1006,5 hPa 0,0 l/m 33,8 km/h (5 Bft) SW 225 2,1 C 0,5 C
04.01.2012 20:42 5,6 C 78 % 1006,5 hPa 0,0 l/m 19,1 km/h (3 Bft) S-SW 202 2,1 C 1,9 C
04.01.2012 20:47 5,7 C 77 % 1006,3 hPa 0,0 l/m 29,2 km/h (5 Bft) W-SW 247 2,0 C 1,0 C
04.01.2012 20:52 5,8 C 78 % 1006,1 hPa 0,0 l/m 15,5 km/h (3 Bft) W-SW 247 2,3 C 2,7 C
04.01.2012 20:57 5,8 C 78 % 1006,0 hPa 0,0 l/m 26,6 km/h (4 Bft) W-SW 247 2,3 C 1,4 C
04.01.2012 21:02 5,8 C 77 % 1005,8 hPa 0,0 l/m 13,3 km/h (3 Bft) W-SW 247 2,1 C 3,0 C
04.01.2012 21:07 5,8 C 77 % 1005,7 hPa 0,0 l/m 23,4 km/h (4 Bft) SW 225 2,1 C 1,7 C
04.01.2012 21:12 5,8 C 77 % 1005,5 hPa 0,0 l/m 22,7 km/h (4 Bft) W-SW 247 2,1 C 1,8 C
04.01.2012 21:17 5,8 C 77 % 1005,3 hPa 0,0 l/m 37,4 km/h (5 Bft) W-SW 247 2,1 C 0,5 C
04.01.2012 21:22 5,8 C 77 % 1005,2 hPa 0,0 l/m 16,2 km/h (3 Bft) W 270 2,1 C 2,6 C
04.01.2012 21:27 5,8 C 77 % 1005,2 hPa 0,0 l/m 16,6 km/h (3 Bft) W-SW 247 2,1 C 2,5 C
04.01.2012 21:32 5,8 C 77 % 1005,0 hPa 0,0 l/m 25,6 km/h (4 Bft) W-SW 247 2,1 C 1,5 C
04.01.2012 21:37 5,7 C 77 % 1004,8 hPa 0,0 l/m 7,9 km/h (2 Bft) W 270 2,0 C 4,0 C
04.01.2012 21:42 5,8 C 77 % 1004,7 hPa 0,0 l/m 21,6 km/h (4 Bft) SW 225 2,1 C 1,9 C
04.01.2012 21:47 5,8 C 77 % 1004,5 hPa 0,0 l/m 37,4 km/h (5 Bft) W-SW 247 2,1 C 0,5 C
04.01.2012 21:52 5,9 C 77 % 1004,4 hPa 0,0 l/m 18,0 km/h (3 Bft) W-SW 247 2,2 C 2,4 C
04.01.2012 21:57 5,9 C 77 % 1004,5 hPa 0,0 l/m 21,6 km/h (4 Bft) SW 225 2,2 C 2,0 C
04.01.2012 22:02 5,8 C 77 % 1004,2 hPa 0,0 l/m 23,0 km/h (4 Bft) SW 225 2,1 C 1,7 C
04.01.2012 22:07 5,9 C 77 % 1004,0 hPa 0,0 l/m 19,1 km/h (3 Bft) W 270 2,2 C 2,3 C
04.01.2012 22:12 5,9 C 77 % 1003,9 hPa 0,0 l/m 25,6 km/h (4 Bft) W-SW 247 2,2 C 1,6 C
04.01.2012 22:17 5,9 C 77 % 1004,0 hPa 0,0 l/m 20,9 km/h (4 Bft) SW 225 2,2 C 2,1 C
04.01.2012 22:22 5,9 C 77 % 1003,6 hPa 0,0 l/m 22,7 km/h (4 Bft) W 270 2,2 C 1,9 C
04.01.2012 22:27 5,9 C 76 % 1003,5 hPa 0,0 l/m 33,5 km/h (5 Bft) W-SW 247 2,0 C 0,9 C
04.01.2012 22:32 5,9 C 76 % 1003,3 hPa 0,0 l/m 9,0 km/h (2 Bft) W-SW 247 2,0 C 4,0 C
04.01.2012 22:37 6,1 C 76 % 1003,0 hPa 0,0 l/m 18,4 km/h (3 Bft) W-SW 247 2,2 C 2,6 C
04.01.2012 22:42 6,0 C 76 % 1002,8 hPa 0,0 l/m 6,1 km/h (2 Bft) W 270 2,1 C 4,8 C
04.01.2012 22:47 6,1 C 76 % 1002,7 hPa 0,0 l/m 12,2 km/h (2 Bft) SW 225 2,2 C 3,6 C
04.01.2012 22:52 6,1 C 76 % 1002,4 hPa 0,0 l/m 26,3 km/h (4 Bft) W-SW 247 2,2 C 1,8 C
04.01.2012 22:57 6,1 C 76 % 1002,2 hPa 0,0 l/m 30,2 km/h (5 Bft) SW 225 2,2 C 1,5 C
04.01.2012 23:02 6,1 C 75 % 1002,2 hPa 0,0 l/m 23,4 km/h (4 Bft) S-SO 157 2,0 C 2,1 C
04.01.2012 23:07 6,1 C 76 % 1001,8 hPa 0,0 l/m 33,1 km/h (5 Bft) SW 225 2,2 C 1,2 C
04.01.2012 23:12 6,1 C 76 % 1001,9 hPa 0,0 l/m 20,9 km/h (4 Bft) S-SW 202 2,2 C 2,4 C
04.01.2012 23:17 6,1 C 76 % 1001,6 hPa 0,0 l/m 28,8 km/h (4 Bft) SW 225 2,2 C 1,6 C
04.01.2012 23:22 6,1 C 76 % 1001,4 hPa 0,0 l/m 19,4 km/h (3 Bft) SW 225 2,2 C 2,5 C
04.01.2012 23:27 6,1 C 76 % 1000,9 hPa 0,0 l/m 35,6 km/h (5 Bft) SW 225 2,2 C 1,1 C
04.01.2012 23:32 5,9 C 77 % 1000,9 hPa 0,0 l/m 23,0 km/h (4 Bft) W-SW 247 2,2 C 1,9 C
04.01.2012 23:37 5,9 C 78 % 1000,7 hPa 0,0 l/m 19,1 km/h (3 Bft) W 270 2,4 C 2,3 C
04.01.2012 23:42 5,9 C 78 % 1000,4 hPa 0,0 l/m 18,4 km/h (3 Bft) SW 225 2,4 C 2,4 C
04.01.2012 23:47 5,8 C 78 % 1000,3 hPa 0,0 l/m 31,3 km/h (5 Bft) S 180 2,3 C 1,0 C
04.01.2012 23:52 5,8 C 79 % 1000,1 hPa 0,0 l/m 26,3 km/h (4 Bft) S 180 2,4 C 1,4 C
04.01.2012 23:57 5,6 C 79 % 999,7 hPa 0,0 l/m 16,9 km/h (3 Bft) SW 225 2,3 C 2,2 C
_ Min-Zeit 17:32 04:27 23:57 - 09:57 - - 04:57 18:32
Minimum _ 4,2 C 68 % 999,7 hPa - 4,3 km/h (1 Bft) - - 0,8 C -0,3 C
_ Max-Zeit 00:02 17:32 16:57 00:02 00:17 - - 00:02 13:42
Maximum _ 7,9 C 84 % 1009,5 hPa 0,5 l/m 37,4 km/h
W-NW (5 Bft)
- - 3,9 C 5,2 C
Durchschnitt _ 5,8 C 77 % 1005,2 hPa #3,1 l/m 20,7 km/h (4 Bft) W-SW - 2,1 C 2,1 C
(c) by David Heller